Home   Weather   Trichy   Past weeks
Flag for India

Past Weather in Trichy, Tamil Nadu, India — Yesterday and Last 2 Weeks

Currently: 81 °F. Fog. (Weather station: Tiruchchirapalli, India). See more current weather

Past Weather in Trichy — Graph

°F

Trichy Temperature Yesterday

Maximum temperature yesterday: 95 °F (at 1:00 pm)
Minimum temperature yesterday: 81 °F (at 12:00 am)
Average temperature yesterday: 87 °F

High & Low Weather Summary for the Past Weeks

 TemperatureHumidityPressure
High100 °F (May 7, 4:00 pm)94% (May 10, 4:30 am)29.80 "Hg (May 10, 4:30 am)
Low77 °F (May 5, 6:30 am)39% (May 7, 5:00 pm)29.50 "Hg (May 9, 4:30 pm)
Average88 °F63%29.66 "Hg
* Reported May 5 6:30 am — May 20 6:30 am, Trichy. Weather by CustomWeather, © 2022

Note: Actual official high and low records may vary slightly from our data, if they occured in-between our weather recording intervals... More about our weather records

Trichy Weather History for the Previous 24 Hours

Scroll right to see more
 ConditionsComfort  
Time TempWeatherWind HumidityBarometerVisibility
6:30 am
Fri, May 20
79 °FFog.3 mph79%29.77 "Hg2 mi
5:30 am79 °FFog.3 mph79%29.74 "Hg2 mi
4:30 am81 °FFog.7 mph79%29.74 "Hg2 mi
3:30 am81 °FPassing clouds.7 mph74%29.71 "Hg2 mi
2:30 am81 °FPassing clouds.9 mph74%29.74 "Hg2 mi
2:00 am82 °FPassing clouds.9 mph66%29.74 "Hg2 mi
1:30 am82 °FPassing clouds.9 mph66%29.74 "Hg2 mi
1:00 am82 °FPassing clouds.9 mph66%29.77 "Hg2 mi
12:30 am82 °FPassing clouds.7 mph66%29.77 "Hg2 mi
12:00 am82 °FPassing clouds.7 mph66%29.77 "Hg2 mi
11:30 pm
Thu, May 19
82 °FPassing clouds.7 mph66%29.77 "Hg2 mi
11:00 pm84 °FPassing clouds.7 mph62%29.77 "Hg2 mi
10:30 pm84 °FPassing clouds.10 mph62%29.77 "Hg2 mi
10:00 pm84 °FPassing clouds.12 mph62%29.77 "Hg2 mi
9:30 pm84 °FPassing clouds.12 mph58%29.74 "Hg2 mi
9:00 pm84 °FPassing clouds.15 mph58%29.74 "Hg2 mi
8:30 pm86 °FPassing clouds.16 mph55%29.74 "Hg3 mi
8:00 pm86 °FPassing clouds.12 mph55%29.74 "Hg3 mi
7:30 pm86 °FPassing clouds.12 mph55%29.71 "Hg3 mi
7:00 pm88 °FPassing clouds.12 mph52%29.71 "Hg4 mi
6:30 pm88 °FScattered clouds.12 mph52%29.68 "Hg4 mi
6:00 pm90 °FScattered clouds.12 mph49%29.68 "Hg4 mi
5:30 pm91 °FScattered clouds.12 mph46%29.68 "Hg4 mi
5:00 pm91 °FScattered clouds.12 mph49%29.65 "Hg4 mi
4:30 pm91 °FScattered clouds.12 mph49%29.65 "Hg4 mi
4:00 pm91 °FScattered clouds.18 mph52%29.65 "Hg4 mi
3:30 pm93 °FScattered clouds.16 mph49%29.65 "Hg4 mi
3:00 pm91 °FScattered clouds.15 mph52%29.68 "Hg4 mi
2:30 pm93 °FScattered clouds.12 mph49%29.68 "Hg4 mi
2:00 pm95 °FScattered clouds.14 mph50%29.68 "Hg3 mi
1:30 pm95 °FScattered clouds.9 mph47%29.71 "Hg3 mi
1:00 pm95 °FScattered clouds.13 mph47%29.71 "Hg3 mi
12:30 pm93 °FScattered clouds.14 mph49%29.71 "Hg3 mi
12:00 pm93 °FScattered clouds.12 mph49%29.74 "Hg3 mi
11:30 am91 °FScattered clouds.10 mph56%29.74 "Hg3 mi
11:00 am91 °FScattered clouds.12 mph56%29.74 "Hg3 mi
10:30 am90 °FScattered clouds.14 mph59%29.77 "Hg3 mi
10:00 am90 °FScattered clouds.12 mph59%29.77 "Hg2 mi
9:30 am88 °FHaze.8 mph62%29.77 "Hg2 mi
9:00 am86 °FHaze.7 mph66%29.77 "Hg2 mi
8:30 am84 °FHaze.6 mph70%29.77 "Hg2 mi
8:00 am84 °FHaze.7 mph70%29.77 "Hg2 mi
7:30 am82 °FFog.9 mph74%29.74 "Hg2 mi
7:00 am82 °FFog.5 mph74%29.74 "Hg2 mi
Weather by CustomWeather, © 2022

See weather overview